www.pogodaiklimat.ru

Погода и климат >> Архив погоды >> Великобритания >> Шап


ПОГОДА в Шапе

  • Прогноз погоды в Шапе
  • Монитор погоды в Шапе

АРХИВ ПОГОДЫ в Шапе

Время (UTC), дата Ветер
(напр.,м/с)
 
Видим.   Явления Облачность Т
(С)
Тd
(С)
f
(%)
Тe
(С)
Тes
(С)
Комфортность P
(гПа)
Po
(гПа)
Тmin
(С)
Tmax
(С)
R
(мм)
R24
(мм)
S
(см)
13 13.09 СЗ 3 45 км н/о +14.8 +6.2 56 +14 +14 1036.1 1005.6
14 13.09 СЗ 3 45 км н/о +15.1 +7.6 61 +14 +14 1035.8 1005.4
15 13.09 З 4 45 км н/о +15.6 +6.9 56 +15 +15 1035.9 1005.5
16 13.09 З 2 45 км н/о +15.7 +6.1 53 +16 +16 1035.2 1004.9
17 13.09 З 2 27 км н/о +15.1 +5.1 51 +15 +15 1035.6 1005.1
18 13.09 З 2 45 км н/о +13.2 +6.6 64 +13 +13 1036.5 1005.8 +16.0
19 13.09 З 1 35 км н/о +8.0 +5.4 84 +8 +8 1037.4 1006.2
20 13.09 СЗ 1 40 км н/о +6.7 +4.9 88 +6 +6 1037.3 1006.0
21 13.09 Ю 2 40 км н/о +6.0 +4.8 92 +4 +4 1037.5 1006.0
22 13.09 ЮЗ 2 40 км н/о +6.0 +4.6 91 +3 +3 1037.4 1005.9
23 13.09 Ю 2 35 км н/о +5.9 +4.3 89 +4 +4 1037.1 1005.7
00 14.09 Ю 2 30 км н/о +7.2 +5.9 91 +5 +5 1036.6 1005.3
01 14.09 Ю 2 35 км н/о +5.7 +4.3 91 +3 +3 1036.8 1005.3
02 14.09 Ю 3 40 км н/о +7.6 +5.7 88 +5 +5 1036.1 1004.8
03 14.09 Ю 4 26 км н/о +6.1 +5.1 93 +2 +2 1035.1 1003.7
04 14.09 ЮЗ 3 8000 м н/о +8.5 +7.0 90 +6 +6 1034.2 1003.1
05 14.09 ЮВ 4 28 км н/о +7.3 +6.1 92 +4 +4 1033.7 1002.4
06 14.09 ЮВ 3 26 км н/о +6.9 +6.0 94 +4 +4 1033.4 1002.2 +4.9
07 14.09 Ю 4 30 км н/о +8.8 +7.5 92 +6 +6 1032.7 1001.7
08 14.09 Ю 7 35 км н/о +10.8 +8.0 83 +7 +7 1032.2 1001.4
09 14.09 Ю 7 35 км н/о +10.9 +8.3 84 +7 +7 1031.3 1000.5
10 14.09 Ю 4 30 км н/о +11.8 +8.7 81 +10 +10 1031.4 1000.7
11 14.09 В 3 35 км н/о +14.1 +10.8 81 +13 +13 1029.9 999.6
12 14.09 ЮЗ 7-13
{14}
35 км н/о +13.9 +10.7 81 +12 +12 1029.3 998.9
13 14.09 ЮЗ 8-13
{13}
45 км н/о +14.8 +10.5 75 +13 +13 1029.2 998.9
14 14.09 ЮЗ 9-14
{14}
35 км н/о +14.7 +10.3 75 +12 +12 1027.7 997.5
15 14.09 ЮЗ 9
{17}
35 км н/о +14.6 +8.6 67 +12 +12 1026.2 996.0
16 14.09 ЮЗ 9-16
{16}
40 км н/о +14.8 +8.5 66 +12 +12 1025.8 995.6
17 14.09 ЮЗ 6
{13}
35 км н/о +14.0 +9.7 75 +12 +12 1025.5 995.3
18 14.09 ЮЗ 8-13
{15}
30 км н/о +13.7 +10.4 80 +11 +11 1024.6 994.4 +15.5
19 14.09 ЮЗ 5
{17}
30 км н/о +13.2 +10.3 83 +11 +11 1025.4 995.1
20 14.09 Ю 8 30 км н/о +12.9 +10.3 84 +10 +10 1024.7 994.4
21 14.09 ЮЗ 11
{15}
35 км н/о +13.7 +10.7 82 +11 +11 1023.2 993.0
22 14.09 ЮЗ 11-16
{18}
30 км н/о +13.8 +11.0 83 +11 +11 1023.1 992.8
23 14.09 ЮЗ 11-17
{17}
21 км н/о +14.0 +11.5 85 +11 +11 1022.5 992.3
00 15.09 ЮЗ 10
{17}
2100 м н/о +13.6 +12.3 92 +10 +10 1022.1 991.9
01 15.09 ЮЗ 6
{14}
12 км н/о +13.7 +12.6 93 +11 +11 1022.0 991.8
02 15.09 ЮЗ 6 17 км н/о +14.1 +12.6 91 +12 +12 1021.3 991.2
03 15.09 З 4 55 км н/о +14.2 +12.5 90 +13 +13 1020.8 990.7
04 15.09 С 3 >70 км н/о +13.1 +11.4 89 +12 +12 1021.3 991.0
05 15.09 СВ 3 >70 км н/о +11.9 +10.7 92 +10 +10 1021.6 991.3
06 15.09 СВ 3 40 км н/о +11.8 +9.9 88 +10 +10 1022.3 991.9 +11.6 0.2
07 15.09 СЗ 5 24 км н/о +12.3 +8.8 79 +10 +10 1022.7 992.3
08 15.09 СЗ 4 20 км н/о +12.3 +8.9 80 +10 +10 1023.4 993.0
09 15.09 СЗ 4 23 км н/о +12.2 +7.0 71 +10 +10 1023.5 993.1
10 15.09 СЗ 4 21 км н/о +12.2 +7.1 71 +10 +10 1023.4 993.0
11 15.09 З 2 35 км н/о +13.3 +3.5 51 +13 +13 1023.6 993.3
12 15.09 СВ 3 35 км н/о +13.0 +4.3 55 +12 +12 1023.7 993.4
13 15.09 В 2 35 км н/о +13.2 +5.4 59 +13 +13 1023.6 993.3
14 15.09 СВ 2 27 км н/о +12.9 +7.4 69 +13 +13 1023.9 993.5
15 15.09 С 1 30 км н/о +13.3 +5.9 61 +14 +14 1023.6 993.4
16 15.09 ЮЗ 2 35 км н/о +13.1 +7.8 70 +13 +13 1023.0 992.7
17 15.09 СЗ 2 35 км н/о +12.8 +7.8 72 +12 +12 1022.8 992.5
18 15.09 СЗ 2 40 км н/о +11.9 +7.4 74 +11 +11 1022.8 992.4 +13.5
19 15.09 СЗ 1 35 км н/о +10.2 +7.4 83 +10 +10 1023.3 992.7
20 15.09 З 2 35 км н/о +7.8 +6.4 91 +6 +6 1023.4 992.5
21 15.09 ЮЗ 2 40 км н/о +8.1 +7.1 93 +6 +6 1023.6 992.7
22 15.09 З 1 40 км н/о +8.5 +7.2 92 +9 +9 1023.6 992.8
23 15.09 штиль 0 30 км н/о +7.2 +6.4 95 +6 +6 1023.9 992.9
00 16.09 штиль 0 30 км н/о +7.2 +6.6 96 +6 +6 1023.5 992.6
01 16.09 ЮЗ 1 23 км н/о +5.4 +4.7 95 +5 +5 1023.7 992.6
02 16.09 штиль 0 26 км н/о +4.8 +4.4 97 +4 +4 1023.6 992.4
03 16.09 штиль 0 19 км н/о +3.5 +3.1 97 +2 +2 1023.4 992.0
04 16.09 С 1 12 км н/о +2.8 +2.4 97 +2 +2 1023.4 992.0
05 16.09 штиль 0 22 км н/о +2.7 +2.5 99 +1 +1 1023.4 992.0
06 16.09 штиль 0 24 км н/о +3.8 +3.8 100 +3 +3 1023.3 992.0 +2.2
07 16.09 штиль 0 23 км н/о +4.0 +4.0 100 +3 +3 1023.6 992.3
08 16.09 В 1 27 км н/о +8.1 +8.1 100 +7 +7 1023.5 992.7
09 16.09 С 2 25 км н/о +10.3 +7.5 83 +9 +9 1023.5 992.9
10 16.09 С 2 35 км н/о +11.9 +6.8 71 +11 +11 1023.3 992.9
11 16.09 С 3 45 км н/о +12.7 +6.2 65 +12 +12 1023.3 993.0
12 16.09 СЗ 4 60 км н/о +13.8 +6.4 61 +13 +13 1023.4 993.2
13 16.09 СЗ 4 45 км н/о +13.8 +6.2 60 +12 +12 1023.2 993.0
14 16.09 СЗ 4 50 км н/о +14.7 +6.6 58 +14 +14 1022.7 992.6
15 16.09 СЗ 4 55 км н/о +14.5 +7.3 62 +13 +13 1022.8 992.7
16 16.09 СЗ 5 55 км н/о +13.7 +6.8 63 +12 +12 1023.0 992.8
17 16.09 СЗ 3 45 км н/о +13.0 +7.2 68 +12 +12 1023.0 992.7
18 16.09 З 3 45 км н/о +12.1 +7.2 72 +11 +11 1023.3 992.9 +14.8
19 16.09 З 3 50 км н/о +10.9 +7.0 77 +9 +9 1024.0 993.5
20 16.09 СЗ 3 50 км н/о +10.5 +6.6 77 +8 +8 1024.1 993.5
21 16.09 СЗ 2 55 км н/о +10.1 +6.1 76 +9 +9 1024.1 993.5
22 16.09 З 3 60 км н/о +8.7 +5.3 79 +7 +7 1024.2 993.4
23 16.09 З 4 55 км н/о +9.7 +6.3 79 +7 +7 1024.1 993.5
00 17.09 СЗ 3 45 км н/о +8.8 +5.8 81 +7 +7 1024.4 993.6
01 17.09 ЮВ 1 35 км н/о +7.3 +5.3 87 +6 +6 1024.7 993.7
02 17.09 СЗ 2 45 км н/о +8.5 +5.5 81 +7 +7 1024.3 993.5
03 17.09 СЗ 2 45 км н/о +8.1 +4.8 80 +6 +6 1024.5 993.7
04 17.09 С 2 45 км н/о +8.1 +5.8 85 +6 +6 1024.5 993.6
05 17.09 СЗ 3 40 км н/о +9.4 +6.0 79 +7 +7 1024.3 993.6
06 17.09 СЗ 4 1200 м н/о +9.1 +5.2 77 +6 +6 1024.5 993.7 +6.7
07 17.09 СЗ 5 7000 м н/о +9.5 +4.5 71 +7 +7 1025.2 994.5
08 17.09 С 5 35 км н/о +10.8 +5.5 70 +8 +8 1025.5 994.9
09 17.09 СЗ 5 29 км н/о +11.1 +6.1 71 +9 +9 1026.0 995.4
10 17.09 СЗ 4 24 км н/о +11.5 +6.5 71 +9 +9 1026.4 995.8
11 17.09 СЗ 5 10 км н/о +12.9 +4.6 57 +11 +11 1026.7 996.3
12 17.09 С 6 45 км н/о +13.4 +5.0 57 +11 +11 1026.7 996.3
13 17.09 С 4 29 км н/о +13.9 +6.1 59 +13 +13 1026.7 996.4
14 17.09 С 4 45 км н/о +13.8 +5.3 56 +13 +13 1026.8 996.5
15 17.09 С 3 35 км н/о +14.0 +5.5 57 +13 +13 1026.9 996.6
16 17.09 С 2 35 км н/о +13.1 +4.3 55 +13 +13 1027.1 996.7
17 17.09 СЗ 3 40 км н/о +13.3 +4.3 54 +13 +13 1027.1 996.7
18 17.09 СЗ 2 35 км н/о +10.8 +4.7 66 +10 +10 1027.5 996.9 +14.6
19 17.09 Ю 1 35 км н/о +7.8 +4.6 80 +8 +8 1028.1 997.1
20 17.09 Ю 1 24 км н/о +8.0 +5.6 85 +8 +8 1028.9 997.9
21 17.09 ЮЗ 1 23 км н/о +7.0 +4.7 85 +6 +6 1029.3 998.2
22 17.09 Ю 1 30 км н/о +4.4 +3.0 91 +3 +3 1029.9 998.5
23 17.09 ЮЗ 2 30 км н/о +3.5 +2.2 91 +1 +1 1029.9 998.3
00 18.09 ЮЗ 2 30 км н/о +3.3 +2.5 94 +1 +1 1029.9 998.4
01 18.09 Ю 1 35 км н/о +3.4 +2.6 94 +2 +2 1030.0 998.5
02 18.09 Ю 1 35 км н/о +5.6 +3.9 89 +4 +4 1029.6 998.3
03 18.09 Ю 2 35 км н/о +7.9 +5.3 84 +6 +6 1029.2 998.2
04 18.09 СВ 1 40 км н/о +6.4 +4.1 85 +5 +5 1029.5 998.3
05 18.09 штиль 0 35 км н/о +6.5 +5.5 93 +5 +5 1029.6 998.4
06 18.09 ЮВ 1 30 км н/о +7.0 +5.8 92 +6 +6 1029.8 998.6 +2.6
07 18.09 ЮВ 2 24 км н/о +8.0 +5.8 86 +6 +6 1029.9 998.9
08 18.09 ЮВ 1 30 км н/о +10.0 +7.3 83 +10 +10 1030.2 999.4
09 18.09 В 2 40 км н/о +11.4 +5.3 66 +11 +11 1030.4 999.8
10 18.09 В 1 50 км н/о +13.1 +4.9 57 +13 +13 1030.3 999.8
11 18.09 0 н/о 999.9
12 18.09 СВ 0 60 км н/о 999.9
13 18.09 СЗ 3 70 км н/о +14.1 +8.1 67 +13 +13 1030.2 999.8
14 18.09 С 3 >70 км н/о +14.9 +8.7 66 +14 +14 1029.9 999.6
15 18.09 В 2 55 км н/о +15.0 +8.5 65 +15 +15 1029.7 999.4
16 18.09 С 2 65 км н/о +15.7 +7.5 58 +16 +16 1029.3 999.1
17 18.09 С 3 45 км н/о +15.0 +9.4 69 +15 +15 1029.4 999.2
18 18.09 ЮЗ 1 55 км н/о +13.9 +8.4 69 +15 +15 1029.7 999.3
19 18.09 З 1 30 км н/о +10.0 +8.0 87 +9 +9 1030.7 999.9
20 18.09 Ю 2 35 км н/о +9.8 +8.2 90 +9 +9 1031.1 1000.2
21 18.09 ЮЗ 1 50 км н/о +7.8 +6.2 90 +8 +8 1031.7 1000.6
22 18.09 Ю 2 50 км н/о +7.9 +6.5 91 +6 +6 1031.8 1000.7
23 18.09 ЮЗ 1 45 км н/о +7.5 +6.6 94 +6 +6 1031.9 1000.8
00 19.09 ЮЗ 1 30 км н/о +6.3 +5.7 96 +6 +6 1032.0 1000.7
01 19.09 ЮЗ 1 30 км н/о +6.2 +5.7 97 +5 +5 1032.0 1000.7
02 19.09 ЮЗ 1 30 км н/о +6.2 +6.2 100 +5 +5 1031.7 1000.5
03 19.09 ЮЗ 2 26 км н/о +5.4 +5.2 99 +3 +3 1031.8 1000.4
04 19.09 Ю 1 28 км н/о +5.7 +5.6 99 +4 +4 1031.7 1000.4
05 19.09 штиль 0 15 км н/о +5.0 +4.7 98 +4 +4 1031.7 1000.2
06 19.09 штиль 0 18 км н/о +3.8 +3.6 99 +3 +3 1031.9 1000.4 +3.7
07 19.09 штиль 0 28 км н/о +6.1 +6.1 100 +5 +5 1031.7 1000.4
08 19.09 штиль 0 35 км н/о +10.8 +10.2 96 +10 +10 1031.8 1001.0
09 19.09 СВ 1 45 км н/о +13.3 +10.0 80 +14 +14 1031.8 1001.3
10 19.09 В 1 22 км н/о +14.7 +10.1 74 +15 +15 1031.8 1001.4
11 19.09 В 2 50 км н/о +15.2 +10.6 74 +15 +15 1031.5 1001.2
12 19.09 С 2 60 км н/о +16.7 +11.2 70 +17 +17 1031.1 1001.0
13 19.09 СВ 1 50 км н/о +17.2 +11.5 69 +18 +18 1030.7 1000.6
14 19.09 ЮВ 2 29 км н/о +17.6 +12.8 73 +18 +18 1030.4 1000.4
15 19.09 В 2 40 км н/о +18.1 +12.7 71 +19 +19 1030.0 1000.0
16 19.09 С 1 22 км н/о +18.1 +12.0 68 +19 +19 1029.7 999.7
17 19.09 Ю 3 500 м н/о +16.2 +13.2 82 +16 +16 1029.7 999.6
18 19.09 ЮЗ 3 3400 м н/о +14.8 +13.0 89 +14 +14 1029.7 999.4 +18.7
19 19.09 ЮВ 1 19 км н/о +11.5 +10.1 91 +12 +12 1030.3 999.6
20 19.09 ЮЗ 1 10 км н/о +12.4 +11.7 95 +13 +13 1030.3 999.7
21 19.09 ЮЗ 2 8000 м н/о +9.4 +8.7 95 +8 +8 1030.7 999.8
22 19.09 штиль 0 4900 м н/о +8.3 +7.8 97 +7 +7 1030.9 999.9
23 19.09 ЮЗ 1 4600 м н/о +7.5 +7.3 99 +7 +7 1030.7 999.6
00 20.09 штиль 0 2700 м н/о +6.4 +6.2 99 +5 +5 1030.3 999.1
01 20.09 штиль 0 5000 м н/о +5.4 +5.1 98 +4 +4 1030.2 998.9
02 20.09 штиль 0 7000 м н/о +5.6 +5.5 99 +4 +4 1029.7 998.4
03 20.09 Ю 1 12 км н/о +6.1 +6.1 100 +6 +6 1029.1 997.9
04 20.09 штиль 0 5000 м н/о +4.9 +4.9 100 +4 +4 1028.8 997.4
05 20.09 ЮВ 1 7000 м н/о +7.1 +7.1 100 +6 +6 1028.2 997.1
06 20.09 ЮВ 1 22 км н/о +7.6 +7.4 99 +6 +6 1027.8 996.8 +4.4
07 20.09 Ю 1 20 км н/о +7.8 +7.7 99 +8 +8 1027.6 996.7
08 20.09 Ю 3 23 км н/о +13.4 +11.5 88 +12 +12 1027.0 996.6
09 20.09 Ю 3 16 км н/о +15.1 +12.0 82 +14 +14 1026.9 996.7
10 20.09 Ю 5 19 км н/о +17.1 +12.7 75 +17 +17 1026.3 996.4
11 20.09 Ю 6 29 км н/о +17.6 +11.1 66 +17 +17 1026.0 996.1

 

Местоположение метеостанции Шап (Великобритания): широта 54.50 долгота -2.68 высота над уровнем моря 255 м.

В архиве по умолчанию представлена погода в Шапе за последнюю неделю. Архивные данные за месяц целиком и за предыдущие месяцы, начиная с января 2011 года, Вы можете получить, выбрав интересующий диапазон дат из раскрывающегося списка и нажав кнопку "Ввод!".


*Определитесь, кто Вы:
робот инопланетянин человек

Внимание! Время в таблицах - всемирное. Для получения местного времени необходимо прибавить поправку, которая равна 0 ч.

Смотрите также архив погоды в соседних городах и на ближайших метеорологических станциях:

Погода в Варкопе (Великобритания) (18 км)
Погода в Грэйт Дан Фелле (Великобритания) (25 км)
Погода в Кесвике (Великобритания) (34 км)
Погода в Карлайле (Великобритания) (51 км)
Погода на Острове Уолни (Великобритания) (56 км)
Погода на Мысе Сент-Бис (Великобритания) (59 км)
Погода в Спадедэме (Великобритания) (62 км)
Погода в Лееминге (Великобритания) (78 км)
Погода в Альбермарле (Великобритания) (78 км)
Погода в Блэкпуле (Великобритания) (84 км)

Пояснения к столбцам:

Ветер - указаны скорость ветра в м/с - средняя за 10 мин, порывы в срок и между сроками (в фигурных скобках) и направление, откуда дует ветер: С - северный, СВ - северо-восточный, В - восточный, ЮВ - юго-восточный, Ю - южный, ЮЗ - юго-западный, З - западный, СЗ - северо-западный.
Видимость - горизонтальная дальность видимости в метрах или километрах. При видимости от 1 до 10 км при отсутствии осадков обычно наблюдается дымка, при ухудшении видимости до 1 км и менее - туман. В сухую погоду видимость может ухудшаться дымом, пылью или мглою.
Явления - указаны атмосферные явления, наблюдавшиеся в срок или в последний час перед сроком; фигурными скобками обозначены явления, наблюдавшиеся между сроками (за 1-3 часа до срока); квадратными скобками обозначены град или гололедные отложения с указанием их диаметра в мм.
Облачность - указаны через наклонную черту общая и нижняя облачность в баллах и высота нижней границы облаков в метрах; квадратными скобками обозначены формы облаков: Ci - перистые, Cs - перисто-слоистые, Cc - перисто-кучевые, Ac - высококучевые, As - высокослоистые, Sc - слоисто-кучевые, Ns - слоисто-дождевые, Cu - кучевые, Cb - кучево-дождевые. Подробнее классификацию облаков см. в Атласе облаков (PDF).
T - Температура воздуха - температура, измеренная на высоте 2 м над землей.
Td - Температура точки росы - температура, при понижении до которой содержащийся в воздухе водяной пар достигнет насыщения.
f - Относительная влажность воздуха - влажноcть воздуха, измеренная на высоте 2 м над землей.
Te - Эффективная температура - температура, которую ощущает одетый по сезону человек в тени. Характеристика душности погоды. При расчете учитывается влияние влажности воздуха и скорости ветра на теплоощущения человека.
Tes - Эффективная температура на солнце - температура, которую ощущает человек, с поправкой на солнечный нагрев. Характеристика знойности погоды. Зависит от высоты солнца над горизонтом, облачности и скорости ветра. Ночью, в пасмурную погоду, а также при ветре 12 м/с и более поправка равна нулю.
P - Атмосферное давление - приведенное к уровню моря атмосферное давление.
Po - Атмосферное давление - измеренное на уровне метеостанции атмосферное давление.
Tmin - Минимальная температура - минимум температуры воздуха на высоте 2 м над землей.
Tmax - Максимальная температура - максимум температуры воздуха на высоте 2 м над землей.
R - Количество осадков - Количество выпавших осадков за период времени, мм. При наведении курсора мыши на число - период времени, за который выпало указанное количество осадков.
R24 - Количество осадков - Количество выпавших осадков за 24 часа, мм.
S - Снежный покров - Высота снежного покрова, см. При наведении курсора мыши на число - состояние снежного покрова и степень покрытия местности в баллах.